Preview of NWS' New Version of Forecast
This preview is not operational and should not be used for support decisions.
Latest weather observations around

Norwood, Norwood Memorial Airport (KOWD)

Using English Units (Switch to International System of Units)
Date/ Time (EST) Wind (mph) Vis. (mi) Weather Sky Cond. Temp (°F) Rel. Humidity Wind Chill (°F) Heat Index (°F) Pressure Precip. (in)
Air Dwpt 6 hour Altimeter (inHg) Sea level (inHg) 1 hr 3 hr 6 hr
Max Min
Feb 22 03:53 NNW 9 10 Cloudy OVC070 49 25     39% 45   30.52 30.52      
Feb 22 02:53 NNW 8 10 Cloudy OVC065 52 20     28%     30.48 30.48      
Feb 22 01:53 NNW 8 10 Cloudy OVC060 54 21     27%     30.47 30.47      
Feb 22 00:53 N 8 10 Cloudy OVC060 56 39     53%     30.43 30.43      
Feb 21 23:53 N 10 10 Cloudy OVC055 57 44     62%     30.39 30.38      
Feb 21 22:53 N 10 10 Cloudy OVC055 60 49     67%     30.35 30.35      
Feb 21 21:53 NW 7 10 Cloudy OVC055 65 51     61%     30.31 30.31      
Feb 21 20:53 NW 8 10 Cloudy BKN060 OVC070 67 52     59%     30.27 30.27      
Feb 21 19:53 W 9 10 Partly Cloudy SCT065 67 58     73%     30.23 30.23      
Feb 21 18:53 SSW 6 10 Clear CLR 65 57     76%     30.2 30.19      
Feb 21 17:53 SSW 8 10 Clear CLR 68 57     68%     30.16 30.15      
Feb 21 16:53 S 8 10 Clear CLR 71 57     61%   71 30.13 30.12      
Feb 21 15:53 SSW 15 10 Clear CLR 74 57     56%   74 30.11 30.11      
Feb 21 14:53 S 13 10 Clear CLR 74 58     57%   74 30.12 30.11      
Feb 21 13:53 SSW 11 10 Clear CLR 72 57     59%   72 30.12 30.12      
Feb 21 12:53 SW 15 10 Clear CLR 70 57     63%     30.15 30.14      
Feb 21 11:53 SSW 11 10 Clear CLR 69 58     68%     30.18 30.18      
Feb 21 10:53 SW 15 10 Mostly Clear FEW015 67 58     73%     30.21 30.2      
Feb 21 10:37 SW 15 10 Partly Cloudy SCT015 66 58     75%     30.21        
Feb 21 09:53 SW 13 10 Cloudy OVC013 64 58     81%     30.22 30.22      
Feb 21 08:53 SW 14 10 Cloudy OVC012 63 58     84%     30.22 30.22      
Feb 21 07:53 SW 10 10 Cloudy OVC011 61 57     87%     30.23 30.23      
Feb 21 07:09 SW 10 10 Cloudy OVC010 60 57     90%     30.22        
Feb 21 06:53 SSW 8 10 Cloudy OVC009 59 56     90%     30.22 30.22      
Feb 21 06:36 SSW 8 10 Cloudy OVC009 58 56     93%     30.22        
Feb 21 05:53 S 6 9 Mostly Cloudy BKN012 56 55     97%     30.24 30.23      
Feb 21 04:53 SSW 5 6 Fog/Mist CLR 53 52     96%     30.24 30.24      
Feb 21 04:30 S 7 4 Fog/Mist CLR 51 50     96%     30.25        
Feb 21 04:20 S 5 1.75 Fog/Mist CLR 50 50     100% 48   30.24        
Feb 21 03:53 SSE 5 7 Clear CLR 52 50     93%     30.25 30.25      
Feb 21 03:27 S 6 3 Fog/Mist CLR 49 48     97% 46   30.25        
Feb 21 03:09 S 5 1.75 Fog/Mist CLR 48 47     96% 46   30.26        
Feb 21 02:53 S 5 6 Fog/Mist CLR 50 48     93% 48   30.26 30.26      
Feb 21 01:53 SSE 5 6 Fog/Mist CLR 50 49     96% 48   30.27 30.27      
Feb 21 00:53 SSE 6 8 Clear CLR 52 50     93%     30.28 30.28      
Feb 20 23:53 SSE 7 10 Clear CLR 53 50     89%     30.28 30.28      
Feb 20 22:53 S 5 10 Clear CLR 54 50     86%     30.28 30.28      
Feb 20 21:53 S 5 10 Clear CLR 57 51     81%     30.27 30.27      
Feb 20 20:53 S 5 10 Clear CLR 59 52     78%     30.27 30.27      
Feb 20 19:53 SSW 7 10 Clear CLR 59 52     78%     30.26 30.25      
Feb 20 18:53 SSW 10 10 Clear CLR 61 53     75%     30.25 30.25      
Feb 20 17:53 S 7 10 Clear CLR 63 53     70%     30.25 30.24      
Feb 20 16:53 SSW 9 10 Clear CLR 71 54     55%   70 30.21 30.2      
Feb 20 15:53 SW 10 10 Clear CLR 73 54     51%   72 30.19 30.19      
Feb 20 14:53 WSW 14 10 Clear CLR 71 54     55%   70 30.2 30.19      
Feb 20 13:53 WSW 9 10 Partly Cloudy SCT080 70 54     57%     30.2 30.2      
Feb 20 12:53 SW 10 10 Mostly Cloudy BKN080 67 53     61%     30.21 30.21      
Feb 20 11:53 SW 13 10 Clear CLR 65 53     65%     30.23 30.23      
Feb 20 10:53 SW 14 10 Clear CLR 63 53     70%     30.24 30.24      
Feb 20 09:53 SW 10 10 Clear CLR 59 52     78%     30.25 30.25      
Feb 20 08:53 SSW 9 10 Mostly Cloudy SCT015 BKN095 56 51     84%     30.26 30.25      
Feb 20 07:53 SSW 8 10 Cloudy OVC100 55 51     86%     30.26 30.25      
Feb 20 07:17 SSW 7 10 Cloudy SCT010 BKN070 OVC100 54 51     90%     30.26        
Feb 20 06:53 SSW 8 10 Cloudy BKN010 OVC080 53 50     89%     30.26 30.25      
Feb 20 05:53 SSW 10 10 Cloudy OVC010 54 51     90%     30.24 30.24      
Feb 20 04:53 SSW 10 10 Cloudy OVC010 55 51     86%     30.24 30.24      
Feb 20 03:53 SW 10 10 Cloudy OVC010 55 52     89%     30.23 30.23      
Feb 20 02:53 SSW 10 10 Cloudy OVC009 55 52     89%     30.24 30.24      
Feb 20 01:53 SSW 10 10 Cloudy OVC008 54 52     93%     30.25 30.25      
Feb 20 00:53 SSW 7 10 Cloudy OVC009 53 51     93%     30.27 30.27     0
Feb 20 00:51 SSW 9 10 Cloudy OVC009 54 52     94%     30.27        
Feb 19 23:53 SSW 9 10 Cloudy OVC011 53 50     89%     30.29 30.29 0    
Feb 19 23:18 SSW 8 10 Light Rain OVC013 51 49     92%     30.31   0    
Notice The following observation data may not be complete
Feb 19 23:08   10 Light Rain FEW009 OVC015          %         0    
Feb 19 22:53 S 8 9 Light Rain FEW010 OVC017 51 49     92%     30.3 30.3 0    
Feb 19 22:32 S 9 7 Light Rain OVC016 50 48     93% 46   30.31   0    
Feb 19 21:53 S 8 6 Light Rain and Fog/Mist OVC011 50 48     93% 47   30.32 30.32 0 0  
Feb 19 21:41 S 7 7 Light Rain FEW008 OVC013 49 47     93% 46   30.32   0    
Feb 19 21:31 S 8 6 Light Rain and Fog/Mist FEW010 OVC015 49 47     93% 45   30.32   0    
Feb 19 20:53 SSW 9 10 Cloudy BKN011 BKN026 OVC037 49 46     90% 45   30.33 30.32      
Feb 19 19:53 S 8 10 Cloudy SCT043 BKN080 OVC100 48 45     89% 44   30.33 30.33      
Feb 19 18:53 S 10 10 Cloudy BKN042 BKN070 OVC090 47 43     86% 42   30.34 30.34      
Feb 19 17:53 S 8 10 Cloudy SCT043 BKN055 OVC095 48 42     80% 44   30.35 30.35      
Feb 19 16:53 S 8 10 Cloudy OVC047 50 40     68% 47   30.37 30.37      
Feb 19 15:53 S 11 10 Cloudy OVC046 51 39     63%     30.37 30.37      
Feb 19 14:53 SSW 20 10 Partly Cloudy and Windy FEW032 SCT050 51 38     61%     30.39 30.39      
Feb 19 13:53 S 17 10 Clear CLR 51 36     56%     30.4 30.4      
Feb 19 12:53 S 16 10 Mostly Clear FEW033 50 35     56% 44   30.42 30.42      
Feb 19 11:53 S 14 10 Partly Cloudy SCT032 48 34     58% 42   30.48 30.48      
Feb 19 10:53 S 17 10 Clear CLR 46 33     60% 39   30.51 30.51      
Feb 19 09:53 S 9 10 Clear CLR 43 31     62% 38   30.52 30.53      
Feb 19 08:53 S 8 10 Clear CLR 38 30     73% 32   30.54 30.54      
Feb 19 07:53 Calm 10 Clear CLR 27 25     92%     30.55 30.55      
Feb 19 06:53 Calm 10 Clear CLR 19 17     92%     30.57 30.57      
Feb 19 05:53 Calm 10 Clear CLR 20 17     88%     30.55 30.55      
Feb 19 04:53 Calm 9 Clear CLR 20 17     88%     30.55 30.55      
Feb 19 03:53 Calm 9 Clear CLR 22 19     88%     30.53 30.53      
Jun 12 05:53 Calm 10 Clear CLR 69 65     87%     29.96 29.96      
Jun 10 22:53 SSW 7 10 Clear   73 56     55%   73 29.99 29.99      
Jun 10 15:53 S 13 10 Clear CLR 83 55     38%   82 29.91 29.91      
Jun 08 08:53 Calm 10 Clear CLR 66 55     68%     30.04 30.04      
Jun 07 22:53 Calm 10 Clear CLR 52 50     93%     30.02 30.02      
Jun 07 11:53 NE 8 10 Cloudy OVC075 64 50     60%     29.96 29.96      
Jun 06 13:35 NNE 14 6 Light Rain and Fog/Mist SCT009 SCT018 OVC039 49 47     93% 44   29.83   0    
Jun 06 11:53 NE 11 1.25 Light Rain and Fog/Mist BKN007 OVC014 50 48     93% 46   29.84 29.83 0    
Notice The following observation data may not be complete
Jun 06 05:05   1.75 Fog/Mist OVC006          %              
Jun 05 21:53 ENE 9 2.5 Light Rain and Fog/Mist OVC006 54 53     97%     29.84 29.83 0    
Jun 05 18:53 ENE 8 1.75 Fog/Mist OVC006 55 53     93%     29.83 29.82